Location: Saint-Usage
(47.1052°N, 5.2587°E)
Time: 03:05:12
(UTC+01:00)

NOAA 19 - Pass Details

Date: 04 December 2021
Orbit: 841 x 860 km, 99.2° (Epoch: 17 January)

Event Time Altitude Azimuth Distance (km) Brightness Sun altitude
Rises 17:53:53 0° 124° (ESE) 3,390 8.0 -10.4°
Reaches altitude 10° 17:56:38 10° 111° (ESE) 2,460 7.2 -10.9°
Maximum altitude 18:00:53 24° 59° (ENE) 1,690 6.2 -11.6°
Drops below altitude 10° 18:05:09 10° 8° (N) 2,478 7.4 -12.2°
Sets 18:07:56 0° 355° (N) 3,421 8.2 -12.7°
